Location: Newark
(35.2672°N, 80.7344°W)
Time: 11:19:48
(UTC+00:00)

SR - Pass Details

Date: 31 January 2020
Orbit: 575 x 880 km, 66.7° (Epoch: 25 February)

Event Time Altitude Azimuth Distance (km) Brightness Sun altitude
Exits shadow 09:34:35 - 12° (NNE) 2,606 ? -34.6°
Reaches altitude 10° 09:36:15 10° 27° (NNE) 2,350 ? -34.3°
Maximum altitude 09:37:38 11° 42° (NE) 2,260 ? -34.0°
Drops below altitude 10° 09:39:00 10° 58° (ENE) 2,296 ? -33.7°
Sets 09:43:24 0° 94° (E) 3,123 ? -32.8°
